Location: Navalespino
(40.5894°N, 4.2660°W)
Time: 01:15:06
(UTC+00:00)

Cosmos 468 Rocket - Pass Details

Date: 18 April 2024
Orbit: 741 x 778 km, 74.0° (Epoch: 18 May)

Event Time Altitude Azimuth Distance (km) Brightness Sun altitude
Exits shadow 21:31:22 46° 53° (NE) 1,009 4.5 -25.7°
Drops below altitude 10° 21:35:13 10° 26° (NNE) 2,295 6.7 -26.2°
Sets 21:37:38 0° 23° (NNE) 3,231 7.5 -26.5°
